Lexington Weather

Lexington, Massachusetts, USA

48°F
12/8/2022 3:08pm 
  • Lexington Conditions: Clear
  • Temperature: 48.4°F / 9.1°CColder 1.1°F than last hour.
  • Dew Point: 35.6°FIncreased 0.7°Fsince last hour.
  • Relative Humidity: 61%Increased 4.0% since last hour.
  • Wind: Wind from NNW NNW Calm, 10-min avg: 1 mph, gust: 6 mph
  • Barometer: 30.08 inRising 0.02  inHg/hr Rising Slowly
  • Visibility: 10 miles
  • Rain Today: 0.00 in
  •   

Warning: Undefined variable $rc in /homepages/6/d276339138/htdocs/weather/20190804/ssi/nwsProduct.php on line 323

Warning: Undefined variable $rc in /homepages/6/d276339138/htdocs/weather/20190804/ssi/nwsProduct.php on line 325

Warning: Undefined variable $rc in /homepages/6/d276339138/htdocs/weather/20190804/ssi/nwsProduct.php on line 323

Warning: Undefined variable $rc in /homepages/6/d276339138/htdocs/weather/20190804/ssi/nwsProduct.php on line 325

Warning: Undefined variable $rc in /homepages/6/d276339138/htdocs/weather/20190804/ssi/nwsProduct.php on line 323

Warning: Undefined variable $rc in /homepages/6/d276339138/htdocs/weather/20190804/ssi/nwsProduct.php on line 325

Warning: Undefined variable $rc in /homepages/6/d276339138/htdocs/weather/20190804/ssi/nwsProduct.php on line 323

Warning: Undefined variable $rc in /homepages/6/d276339138/htdocs/weather/20190804/ssi/nwsProduct.php on line 325

Warning: Undefined variable $rc in /homepages/6/d276339138/htdocs/weather/20190804/ssi/nwsProduct.php on line 323

Warning: Undefined variable $rc in /homepages/6/d276339138/htdocs/weather/20190804/ssi/nwsProduct.php on line 325

Warning: Undefined variable $rc in /homepages/6/d276339138/htdocs/weather/20190804/ssi/nwsProduct.php on line 323

Warning: Undefined variable $rc in /homepages/6/d276339138/htdocs/weather/20190804/ssi/nwsProduct.php on line 325

Warning: Undefined variable $rc in /homepages/6/d276339138/htdocs/weather/20190804/ssi/nwsProduct.php on line 323

Warning: Undefined variable $rc in /homepages/6/d276339138/htdocs/weather/20190804/ssi/nwsProduct.php on line 325

Regional Weather Roundup
for Boston, MA

        
000
ASUS41 KBOX 050710
RWRBOX

REGIONAL WEATHER ROUNDUP
NATIONAL WEATHER SERVICE BOSTON/NORTON MA
200 AM EST MON DEC 05 2022

NOTE:  "FAIR" INDICATES FEW OR NO CLOUDS BELOW 12,000 FEET WITH NO 
SIGNIFICANT WEATHER AND/OR OBSTRUCTIONS TO VISIBILITY.

MAZALL-050800-
EASTERN MASSACHUSETTS
  
CITY           SKY/WX    TMP DP  RH WIND       PRES   REMARKS
BOSTON         PTCLDY    34  23  64 S3        30.22R                  
BEVERLY        PTCLDY    24  21  88 CALM      30.20S                  
LAWRENCE       PTCLDY    26  19  74 CALM      30.22R                  
BEDFORD        PTCLDY    25  20  81 CALM      30.20R                  
NORWOOD        PTCLDY    24  20  84 CALM      30.22R                  
MARSHFIELD       N/A     25  23  93 CALM      30.23R                  
PLYMOUTH       PTCLDY    25  21  85 CALM      30.22R                  
TAUNTON          N/A    N/A N/A N/A MISG      30.22R                  
NEW BEDFORD    PTCLDY    23  22  96 CALM      30.22R                  
$$

MAZALL-050800-
CAPE COD AND THE ISLANDS
  
CITY           SKY/WX    TMP DP  RH WIND       PRES   REMARKS
FALMOUTH       CLEAR     21  19  93 CALM      30.23R                  
HYANNIS        PTCLDY    23  21  92 CALM      30.21R                  
CHATHAM        PTCLDY    29  24  82 W3        30.22R                  
PROVINCETOWN   PTCLDY    24  21  88 W3        30.23R                  
NANTUCKET      CLEAR     32  24  72 CALM      30.22R                  
MARTHAS VNYRD  CLEAR     21  18  88 NW5       30.23R WCI  15          
$$
 
MAZALL-050800-
CENTRAL AND WESTERN MASSACHUSETTS
  
CITY           SKY/WX    TMP DP  RH WIND       PRES   REMARKS
WORCESTER      PTCLDY    30  18  60 SW8       30.15R WCI  22          
FITCHBURG      PTCLDY    23  18  81 CALM      30.18S                  
ORANGE         PTCLDY    21  18  88 CALM      30.18R                  
SPRINGFIELD    CLEAR     21  19  95 CALM      30.17S                  
WESTFIELD      CLEAR     21  18  88 CALM      30.19R                  
NORTH ADAMS    CLEAR     26  20  77 E9        30.15R WCI  17          
PITTSFIELD     CLEAR     20  17  88 CALM      30.12R                  
$$
 
RIZALL-050800-
RHODE ISLAND
  
CITY           SKY/WX    TMP DP  RH WIND       PRES   REMARKS
PROVIDENCE     PTCLDY    26  22  84 CALM      30.23R                  
NEWPORT        PTCLDY    26  23  88 CALM      30.22R                  
BLOCK ISLAND   CLEAR     31  22  69 CALM      30.22R                  
SMITHFIELD     PTCLDY    23  21  92 CALM      30.21R                  
WESTERLY       CLEAR     26  23  88 N3        30.22R                  
$$
 
CTZALL-050800-
CONNECTICUT
  
CITY           SKY/WX    TMP DP  RH WIND       PRES   REMARKS
BRADLEY INTL   PTCLDY    24  21  88 CALM      30.19R                  
HARTFORD       CLEAR     28  24  85 CALM      30.21R                  
BRIDGEPORT     CLEAR     28  24  85 CALM      30.21R                  
DANBURY        CLEAR     23  18  81 CALM      30.19S                  
GROTON         CLEAR     27  22  81 N3        30.21R                  
NEW HAVEN      CLEAR     29  25  85 CALM      30.20R                  
CHESTER        FAIR      28  21  74 CALM      30.19R                  
MERIDEN        CLEAR     24  21  88 CALM      30.21R                  
WILLIMANTIC    CLEAR     23  21  92 CALM      30.21R                  
OXFORD         CLEAR     26  22  84 CALM      30.18R                  
$$

MEZ002-015-021-024-NHZ003-005-008-011-012-014-VTZ005-008-050800-
NORTHERN NEW ENGLAND
  
CITY           SKY/WX    TMP DP  RH WIND       PRES   REMARKS
PORTLAND ME    MOCLDY    23  19  85 CALM      30.20R                  
BANGOR ME      MOCLDY    25  17  72 SE3       30.19S                  
CONCORD NH     PTCLDY    19  17  92 CALM      30.18R                  
MANCHESTER NH  PTCLDY    24  20  84 CALM      30.17R                  
NASHUA NH      PTCLDY    20  20 100 CALM      30.20R                  
PORTSMOUTH NH  MOCLDY    24  18  79 CALM      30.20R                  
JAFFREY NH     PTCLDY    23  20  88 CALM      30.15R                  
KEENE NH       PTCLDY    20  19  96 CALM        N/A                   
BURLINGTON VT  CLOUDY    32  20  61 S12       30.08R WCI  23          
MT. WASHINGTON PTCLDY     9   3  78 W43         N/A  WCI -17          
$$

NYZ052-076-050800-
EASTERN NEW YORK
  
CITY           SKY/WX    TMP DP  RH WIND       PRES   REMARKS
ALBANY         PTCLDY    30  20  66 S6        30.15R WCI  24          
NEW YORK CITY  CLEAR     39  20  46 CALM      30.20R                  
$$
 
ANZALL-050800-
MARINE OBSERVATIONS
  
STATION/POSITION TIME  TEMP    WIND        PRES    VSBY  WAVE
                       AIR SEA DIR/SP/G                  HT/PER
                 (UTC) (F)     (DEG/KT/KT) (MB)    (MI)  (FT/S)
BOSTON BUOY      0650      51  220/  6/ 10 1024.0R         2/10
BUZZARDS BAY     0600   40      CALM  /  1 1023.4S
NANTUCKET SOUND  0650   42 49  300/  4/  8 1023.4R         1
MASS BAY-STELLWA 0504   40 50  270/  6/  8 1021.9R  1 7/8  2/11
ISLE OF SHOALS   0600   38     230/  8/  9 1022.0R
S OF BLOCK IS    0656      55                N/A           2/ 9
$$

......................KEY.........................
  SKY/WX - SKY CONDITION/PRESENT WEATHER
  TMP    - TEMPERATURE IN FAHRENHEIT
  DWPT   - DEWPOINT IN FAHRENHEIT
  RH     - RELATIVE HUMIDITY IN PERCENT
  WIND   - DIRECTION AND SPEED IN MPH
  PRES   - MEAN SEA LEVEL PRESSURE IN INCHES OF HG
  WCI    - WIND CHILL INDEX
  VSB    - VISIBILITY IN MILES
  HX     - HEAT INDEX
  TC     - TEMPERATURE IN CELSIUS
  VRB    - VARIABLE WIND DIRECTION
  N/A    - NOT AVAILABLE
  
      

Other recent Regional Weather Roundups

Thu Dec 8, 2:10pm

Thu Dec 8, 1:10pm

Thu Dec 8, 12:10pm

Thu Dec 8, 11:10am

Thu Dec 8, 10:10am

Thu Dec 8, 9:10am

Thu Dec 8, 8:10am

Thu Dec 8, 7:10am

Thu Dec 8, 6:10am

Thu Dec 8, 5:10am

Thu Dec 8, 4:10am

Thu Dec 8, 3:10am

Thu Dec 8, 2:10am

Thu Dec 8, 1:10am

Thu Dec 8, 12:10am

Wed Dec 7, 11:10pm

Wed Dec 7, 10:10pm

Wed Dec 7, 9:10pm

Wed Dec 7, 8:10pm

Wed Dec 7, 7:10pm

Wed Dec 7, 6:10pm

Wed Dec 7, 5:10pm

Wed Dec 7, 4:10pm

Wed Dec 7, 3:10pm

Wed Dec 7, 2:10pm

Wed Dec 7, 1:10pm

Wed Dec 7, 12:10pm

Wed Dec 7, 11:10am

Wed Dec 7, 10:10am

Wed Dec 7, 9:10am

Wed Dec 7, 8:10am

Wed Dec 7, 7:10am

Wed Dec 7, 6:10am

Wed Dec 7, 5:10am

Wed Dec 7, 4:10am

Wed Dec 7, 3:10am

Wed Dec 7, 2:10am

Wed Dec 7, 1:10am

Wed Dec 7, 12:10am

Tue Dec 6, 11:10pm

Tue Dec 6, 10:10pm

Tue Dec 6, 9:10pm

Tue Dec 6, 8:10pm

Tue Dec 6, 7:10pm

Tue Dec 6, 6:10pm

Tue Dec 6, 5:10pm

Tue Dec 6, 4:10pm

Tue Dec 6, 3:10pm

Tue Dec 6, 2:10pm

Tue Dec 6, 1:10pm

Tue Dec 6, 12:10pm

Tue Dec 6, 11:10am

Tue Dec 6, 10:10am

Tue Dec 6, 9:10am

Tue Dec 6, 8:10am

Tue Dec 6, 7:10am

Tue Dec 6, 6:10am

Tue Dec 6, 5:10am

Tue Dec 6, 4:10am

Tue Dec 6, 3:10am

Tue Dec 6, 2:10am

Tue Dec 6, 1:10am

Tue Dec 6, 12:10am

Mon Dec 5, 11:10pm

Mon Dec 5, 10:10pm

Mon Dec 5, 9:10pm

Mon Dec 5, 8:10pm

Mon Dec 5, 7:10pm

Mon Dec 5, 6:10pm

Mon Dec 5, 5:10pm

Mon Dec 5, 4:10pm

Mon Dec 5, 3:10pm

Mon Dec 5, 2:10pm

Mon Dec 5, 1:10pm

Mon Dec 5, 12:10pm

Mon Dec 5, 11:10am

Mon Dec 5, 10:10am

Mon Dec 5, 9:10am

Mon Dec 5, 8:10am

Mon Dec 5, 7:10am

Mon Dec 5, 6:10am

Mon Dec 5, 5:10am

Mon Dec 5, 4:10am

Mon Dec 5, 3:10am

Mon Dec 5, 1:10am

Mon Dec 5, 12:10am

Sun Dec 4, 11:10pm

Sun Dec 4, 10:10pm

Sun Dec 4, 9:10pm

Sun Dec 4, 8:10pm

Sun Dec 4, 7:10pm

Sun Dec 4, 6:10pm

Sun Dec 4, 5:10pm

Sun Dec 4, 4:10pm

Sun Dec 4, 3:10pm

Sun Dec 4, 2:10pm

Sun Dec 4, 1:10pm

Sun Dec 4, 12:10pm

Sun Dec 4, 11:10am

Sun Dec 4, 10:10am

Sun Dec 4, 9:10am

Sun Dec 4, 8:10am

Sun Dec 4, 7:10am

Sun Dec 4, 6:10am

Sun Dec 4, 5:10am

Sun Dec 4, 4:10am

Sun Dec 4, 3:10am

Sun Dec 4, 2:10am

Sun Dec 4, 1:10am

Sun Dec 4, 12:10am

Sat Dec 3, 11:10pm

Sat Dec 3, 10:10pm

Sat Dec 3, 9:10pm

Sat Dec 3, 8:10pm

Sat Dec 3, 7:10pm

Sat Dec 3, 6:10pm

Sat Dec 3, 5:10pm

Sat Dec 3, 4:10pm

Sat Dec 3, 3:10pm

Sat Dec 3, 2:10pm

Sat Dec 3, 1:10pm

Sat Dec 3, 12:10pm

Sat Dec 3, 11:10am

Sat Dec 3, 10:10am

Sat Dec 3, 9:10am

Sat Dec 3, 8:10am

Sat Dec 3, 7:10am

Sat Dec 3, 6:10am

Sat Dec 3, 5:10am

Sat Dec 3, 4:10am

Sat Dec 3, 3:10am

Sat Dec 3, 2:10am

Sat Dec 3, 1:10am

Sat Dec 3, 12:10am

Fri Dec 2, 11:10pm

Fri Dec 2, 10:10pm

Fri Dec 2, 9:10pm

Fri Dec 2, 8:10pm

Fri Dec 2, 7:10pm

Fri Dec 2, 6:10pm

Fri Dec 2, 5:10pm

Fri Dec 2, 4:10pm

Fri Dec 2, 3:10pm

Fri Dec 2, 2:10pm

Fri Dec 2, 1:10pm

Fri Dec 2, 12:10pm

Fri Dec 2, 11:10am

Fri Dec 2, 10:10am

Fri Dec 2, 9:10am

Fri Dec 2, 8:10am

Fri Dec 2, 7:10am

Fri Dec 2, 6:10am

Fri Dec 2, 5:10am

Fri Dec 2, 4:10am

Fri Dec 2, 3:10am

Fri Dec 2, 2:10am

Fri Dec 2, 1:10am

Fri Dec 2, 12:10am

Thu Dec 1, 11:10pm

Thu Dec 1, 10:10pm

Thu Dec 1, 9:10pm

Thu Dec 1, 8:10pm

Thu Dec 1, 7:10pm

Thu Dec 1, 6:10pm

Thu Dec 1, 5:10pm

Thu Dec 1, 4:10pm

Thu Dec 1, 3:10pm

Meta data:

ID: 72f2afba-8ded-40ba-8aad-346d5fb52f23
Link: https://api.weather.gov/products/72f2afba-8ded-40ba-8aad-346d5fb52f23